Regional Weather Roundup
Issued by NWS

Home | Current Version | Previous Version | Text Only | Print | Product List | Glossary On
Versions: 1 2 3 4 5 6 7 8 9 10 11 12 13 14 15 16 17 18 19 20 21 22 23 24 25 26 27 28 29 30 31 32 33 34 35 36 37 38 39 40 41 42 43 44 45 46 47 48 49 50
000
ASUS44 KOUN 231210
RWROK

WEATHER ROUNDUP FOR OKLAHOMA
NATIONAL WEATHER SERVICE NORMAN OK
700 AM CDT WED JUL 23 2014

NOTE: "FAIR" INDICATES FEW OR NO CLOUDS BELOW 12,000 FEET WITH NO
      SIGNIFICANT WEATHER AND/OR OBSTRUCTIONS TO VISIBILITY.

OKZ001>007-009>012-014-015-017-231300-
NORTHWEST OKLAHOMA AND THE PANHANDLE

CITY           SKY/WX    TMP DP  RH WIND       PRES   REMARKS
GAGE           CLEAR     65  64  97 S7        30.19R FOG
6HR MIN TEMP:  65; 6HR MAX TEMP:  73;

ENID/WOODRING  FOG       73  73 100 CALM      30.11R VSB 3/4
$$

OKZ016-021>023-033>039-044-045-231300-
SOUTHWEST OKLAHOMA

CITY           SKY/WX    TMP DP  RH WIND       PRES   REMARKS
LAWTON/REGL    CLEAR     71  68  90 CALM      30.13R FOG
6HR MIN TEMP:  71; 6HR MAX TEMP:  78;

LAWTON/FT SILL CLEAR     74  71  90 CALM      30.12S
FREDERICK      PTCLDY    75  72  90 NE9       30.11R FOG
CLINTON        CLEAR     73  67  81 W6        30.18R
HOBART         PTCLDY    71  69  93 W5        30.15S FOG
ALTUS AFB      PTCLDY    71  71 100 NE5       30.14R
$$

OKZ018>020-024>031-231300-
CENTRAL OKLAHOMA

CITY           SKY/WX    TMP DP  RH WIND       PRES   REMARKS
OKLAHOMA CITY  PTCLDY    73  71  93 S3        30.14R FOG
6HR MIN TEMP:  73; 6HR MAX TEMP:  77;

OKC/WILEY POST CLEAR     76  72  87 SW5       30.13R FOG
OKC/TINKER AFB CLEAR     76  71  86 SW6       30.14R
STILLWATER     CLEAR     74  72  93 S5        30.11R FOG
$$

OKZ008-013-054>072-231300-
NORTHEAST OKLAHOMA

CITY           SKY/WX    TMP DP  RH WIND       PRES   REMARKS
TULSA          MOCLDY    80  74  81 CALM      30.08R
6HR MIN TEMP:  79; 6HR MAX TEMP:  84;

TULSA/JONES    CLEAR     75  75 100 CALM      30.09R
PONCA CITY     CLEAR     74  72  93 CALM      30.10R FOG
BARTLESVILLE   PTCLDY    74  73  97 CALM      30.11R FOG
MUSKOGEE       CLEAR     75  74  96 W6        30.10S FOG
$$

OKZ032-040>043-046>053-073>077-231300-
SOUTH CENTRAL/SOUTHEAST OKLAHOMA

CITY           SKY/WX    TMP DP  RH WIND       PRES   REMARKS
ARDMORE/DWNTWN CLEAR     70  68  94 CALM      30.11R FOG
MCALESTER      PTCLDY    72  70  93 CALM      30.11R FOG
$$



USA.gov is the U.S. government's official web portal to all federal, state and local government web resources and services.